Hourly Data Report for May 25, 2021

OTTAWA INTL A
ONTARIO
Current Station Operator: NAVCAN

45°19'00.000" N
75°40'00.000" W
114.90 m
6106001
71628
YOW

Download Data

Hourly Data (May 2021)
Hourly Data Report for May 25, 2021
TIME
LST
Temp Definition
°C
Dew Point Definition
°C
Rel Hum Definition
%
Precip. Amount Definition
mm

Wind Dir Definition
10's deg

Wind Spd Definition
km/h
Visibility Definition
km
Stn Press Definition
kPa
Hmdx Definition


Wind Chill Definition


Weather Definition


00:00 12.4 4.1 57   19 8 24.1 100.48     LegendNANA
01:00 12.4 3.7 55   19 9 24.1 100.46     Mainly Clear
02:00 11.9 4.2 59   21 10 24.1 100.44     LegendNANA
03:00 11.9 4.9 62   21 9 24.1 100.45     LegendNANA
04:00 11.0 4.8 65   18 9 24.1 100.42     Mainly Clear
05:00 12.8 7.7 71   17 11 24.1 100.38     LegendNANA
06:00 13.9 10.4 80   21 10 24.1 100.37     LegendNANA
07:00 15.1 12.2 83   21 16 24.1 100.34     Mostly Cloudy
08:00 16.5 13.4 82   19 22 24.1 100.25     LegendNANA
09:00 20.0 13.7 67   20 26 24.1 100.23     LegendNANA
10:00 22.7 15.3 63   23 21 24.1 100.14 27   Mostly Cloudy
11:00 23.1 16.4 66   22 26 24.1 100.13 28   Rain
12:00 22.1 16.6 71   20 21 24.1 100.05 27   LegendNANA
13:00 25.1 17.4 62   20 24 24.1 99.96 31   Mostly Cloudy
14:00 25.5 17.6 61   20 24 24.1 99.90 31   LegendNANA
15:00 26.2 18.1 60   20 28 24.1 99.84 32   LegendNANA
16:00 24.9 18.0 65   21 25 24.1 99.81 31   Mostly Cloudy
17:00 25.1 18.1 65   20 31 24.1 99.74 31   LegendNANA
18:00 25.4 18.5 65   20 20 24.1 99.69 32   LegendNANA
19:00 24.4 18.3 68   20 21 24.1 99.69 31   Mostly Cloudy
20:00 24.2 18.1 68   20 21 24.1 99.68 30   LegendNANA
21:00 24.2 17.8 67   21 16 24.1 99.75 30   LegendNANA
22:00 23.2 17.3 69   21 12 24.1 99.73 29   Mostly Cloudy
23:00 22.4 16.9 71   20 10 24.1 99.73 28   LegendNANA

Notes on Data Quality.

Legend

  • E = Estimated
  • M = Missing
  • NA = Not Available*
  • [empty] = Indicates an unobserved value
Date modified: